Retour au catalogue

STARLINK-35897

ActifCommunicationsVLEO
NORAD 66501·PAYLOAD·🇺🇸 United States

Lancé Nov 15, 2025 depuis Cape Canaveral Space Force Station

Loading…

Prochains Passages (prochaines 24 heures)

TLE

FraisSource: CelesTrak SupGP

Époque: Sep 15, 2026, 03:58 UTC

1 66501C 25263S   26258.16576389  .00045895  00000+0  16619-2 0  2587
2 66501  43.0038   0.6767 0001627 265.6406 191.7224 15.27563164    16

Suivez STARLINK-35897 en temps réel avec AllMySat

Download on the App Store